Regional Weather Roundup
Issued by NWS

Home | Current Version | Previous Version | Text Only | Print | Product List | Glossary On
Versions: 1 2 3 4 5 6 7 8 9 10 11 12 13 14 15 16 17 18 19 20 21 22 23 24 25 26 27 28 29 30 31 32 33 34 35 36 37 38 39 40 41 42 43 44 45 46 47 48 49 50
957
ASUS43 KMKX 220610
RWRWI

WISCONSIN REGIONAL WEATHER ROUNDUP
NATIONAL WEATHER SERVICE MILWAUKEE/SULLIVAN WI
1200 AM CST THU FEB 22 2018

NOTE: "FAIR" INDICATES FEW OR NO CLOUDS BELOW 12,000 FEET WITH NO
SIGNIFICANT WEATHER AND/OR OBSTRUCTIONS TO VISIBILITY.

WIZ001-002-006>008-014>016-023>028-220700-
NORTHWEST WISCONSIN

CITY           SKY/WX    TMP DP  RH WIND       PRES   REMARKS
SUPERIOR ARPT  FAIR      -2  -5  87 CALM      30.66S
6HR MIN TEMP:  -2; 6HR MAX TEMP:  20;

ASHLAND        FAIR       6  -1  73 SW8       30.65S WCI  -7
6HR MIN TEMP:   5; 6HR MAX TEMP:  18;

HAYWARD        FAIR       0  -5  79 CALM      30.63S
6HR MIN TEMP:  -1; 6HR MAX TEMP:  18;

SIREN          FAIR      -2  -6  84 CALM      30.64S
6HR MIN TEMP:  -4; 6HR MAX TEMP:  16;

CUMBERLAND     FAIR       0  -4  85 CALM      30.61F
RICE LAKE      FAIR      -2  -5  87 CALM      30.64F
6HR MIN TEMP:  -3; 6HR MAX TEMP:  15;

CHETEK         FAIR       1  -2  88 CALM      30.63F
6HR MIN TEMP:   1; 6HR MAX TEMP:  15;

LADYSMITH      FAIR       1  -3  85 CALM      30.65F
6HR MIN TEMP:  -1; 6HR MAX TEMP:  16;

EAU CLAIRE     CLOUDY     3   0  87 CALM      30.64F
6HR MIN TEMP:   2; 6HR MAX TEMP:  16;

MENOMONIE      FAIR       5   0  80 CALM      30.65F
6HR MIN TEMP:   5; 6HR MAX TEMP:  18;

NEW RICHMOND   FAIR       3  -1  81 SE5       30.63F WCI  -6
6HR MIN TEMP:   2; 6HR MAX TEMP:  14;

OSCEOLA        FAIR       4  -1  80 CALM      30.67S
6HR MIN TEMP:   4; 6HR MAX TEMP:  15;

$$

WIZ003>005-009-010-017-018-220700-
NORTH CENTRAL WISCONSIN

CITY           SKY/WX    TMP DP  RH WIND       PRES   REMARKS
MANITOWISH WTR FAIR      -3  -6  90 CALM      30.60R
6HR MIN TEMP:  -6; 6HR MAX TEMP:  11;

ARBOR VITAE    FAIR       1  -2  84 CALM      30.61R
6HR MIN TEMP:   1; 6HR MAX TEMP:  17;

WOODRUFF       FAIR       1  -2  84 CALM      30.61R
6HR MIN TEMP:   1; 6HR MAX TEMP:  17;

RHINELANDER    FAIR       2   0  91 CALM      30.61S
6HR MIN TEMP:   0; 6HR MAX TEMP:  15;

EAGLE RIVER    FAIR      -3  -8  79 CALM      30.60S
6HR MIN TEMP:  -4; 6HR MAX TEMP:  15;

LAND O LAKES   FAIR      -8 -13  80 CALM      30.61R
6HR MIN TEMP:  -8; 6HR MAX TEMP:  11;

PHILLIPS       FAIR      -2  -6  84 CALM      30.61S
6HR MIN TEMP:  -2; 6HR MAX TEMP:  14;

TOMAHAWK       FAIR      -5  -8  84 CALM      30.63R
6HR MIN TEMP:  -5; 6HR MAX TEMP:  15;

MEDFORD        FAIR       0  -4  85 NE3       30.61F
6HR MIN TEMP:  -1; 6HR MAX TEMP:  13;

MERRILL        FAIR       2  -1  86 CALM      30.64S
6HR MIN TEMP:   1; 6HR MAX TEMP:  16;

$$

WIZ029-030-035-036-043>047-220700-
CENTRAL WISCONSIN

CITY           SKY/WX    TMP DP  RH WIND       PRES   REMARKS
WAUSAU         FAIR       7   4  87 CALM      30.62S
6HR MIN TEMP:   6; 6HR MAX TEMP:  16;

MOSINEE        FAIR      12   7  79 N7        30.63F WCI   2
MARSHFIELD     FAIR      11   6  81 NE3       30.61S
6HR MIN TEMP:   9; 6HR MAX TEMP:  17;

STEVENS POINT  FAIR       8   5  89 CALM      30.64S
6HR MIN TEMP:   7; 6HR MAX TEMP:  17;

WAUPACA        FAIR      18  11  75 CALM      30.66R
6HR MIN TEMP:  18; 6HR MAX TEMP:  22;

WAUTOMA        FAIR      15  11  83 CALM      30.66R
6HR MIN TEMP:  15; 6HR MAX TEMP:  20;

WISC RAPIDS    FAIR      12   7  80 CALM      30.65S
6HR MIN TEMP:  12; 6HR MAX TEMP:  19;

CAMP DOUGLAS   FAIR      15  13  93 CALM      30.64S
6HR MIN TEMP:  12; 6HR MAX TEMP:  20;

$$

WIZ011>013-019>022-031-037>040-048>050-220700-
NORTHEAST WISCONSIN

CITY           SKY/WX    TMP DP  RH WIND       PRES   REMARKS
ANTIGO         FAIR       3   0  87 CALM      30.62S
6HR MIN TEMP:   1; 6HR MAX TEMP:  13;

SHAWANO        FAIR      17   8  65 CALM      30.65S
6HR MIN TEMP:  17; 6HR MAX TEMP:  23;

OCONTO         FAIR      18  10  69 CALM      30.67S
6HR MIN TEMP:  18; 6HR MAX TEMP:  23;

STURGEON BAY   FAIR      18  12  77 N3        30.67S
6HR MIN TEMP:  18; 6HR MAX TEMP:  23;

GREEN BAY      FAIR      19  10  68 CALM      30.66F
6HR MIN TEMP:  19; 6HR MAX TEMP:  25;

MANITOWOC      FAIR      21  13  71 N3        30.67F
6HR MIN TEMP:  21; 6HR MAX TEMP:  25;

APPLETON       FAIR      19   9  63 N5        30.63S WCI  13
CLINTONVILLE   FAIR      17   7  66 CALM      30.66S
6HR MIN TEMP:  17; 6HR MAX TEMP:  22;

OSHKOSH        FAIR      19  10  68 N6        30.64F WCI  11
6HR MIN TEMP:  19; 6HR MAX TEMP:  23;

$$

WIZ032>034-041-042-053>061-220700-
SOUTHWEST WISCONSIN

CITY           SKY/WX    TMP DP  RH WIND       PRES   REMARKS
LA CROSSE      FAIR      18  13  80 CALM      30.65F
6HR MIN TEMP:  18; 6HR MAX TEMP:  23;

SPARTA         MOCLDY    14  13  93 CALM      30.65F
6HR MIN TEMP:  13; 6HR MAX TEMP:  21;

VIROQUA        FAIR      19  16  91 E6        30.60S WCI  10
6HR MIN TEMP:  19; 6HR MAX TEMP:  21;

BOSCOBEL       MOCLDY    24  15  68 NE3       30.64F
6HR MIN TEMP:  22; 6HR MAX TEMP:  26;

PRAIRIE DU CHI CLOUDY    23  13  65 N3        30.62F
6HR MIN TEMP:  22; 6HR MAX TEMP:  25;

PLATTEVILLE    CLOUDY    24  16  71 NE8       30.59S WCI  15
6HR MIN TEMP:  24; 6HR MAX TEMP:  26;

$$

WIZ056-057-062-063-064-067-068-220700-
SOUTH CENTRAL WISCONSIN

CITY           SKY/WX    TMP DP  RH WIND       PRES   REMARKS
REEDSBURG      FAIR      20  13  76 NE3       30.63F
6HR MIN TEMP:  19; 6HR MAX TEMP:  23;

BARABOO/DELLS  FAIR      19  13  77 CALM      30.62F
6HR MIN TEMP:  19; 6HR MAX TEMP:  24;

LONE ROCK      CLOUDY    23  14  68 NE6       30.64S WCI  16
6HR MIN TEMP:  23; 6HR MAX TEMP:  27;

MINERAL POINT  CLOUDY    25  16  68 NE6       30.59S WCI  18
MADISON        FAIR      21  14  74 NE5       30.62F WCI  15
6HR MIN TEMP:  21; 6HR MAX TEMP:  24;

MIDDLETON      FAIR      24  16  70 NE5       30.62S WCI  18
6HR MIN TEMP:  24; 6HR MAX TEMP:  27;

WATERTOWN      FAIR      22  16  78 CALM      30.62F
6HR MIN TEMP:  22; 6HR MAX TEMP:  24;

MONROE         FAIR      25  14  63 NE13      30.57F WCI  13
JANESVILLE     FAIR      27  18  69 NE7       30.60F WCI  19
$$

WIZ051-052-058>065-066-070>072-220700-
SOUTHEAST WISCONSIN

CITY           SKY/WX    TMP DP  RH WIND       PRES   REMARKS
MILWAUKEE      CLOUDY    28  17  63 NE7       30.62F WCI  21
6HR MIN TEMP:  26; 6HR MAX TEMP:  28;

WAUKESHA       FAIR      21  14  73 NE3       30.63F
MILWAUKEE/TIMM FAIR      25  12  58 N6        30.65S WCI  18
RACINE         FAIR      27  19  72 NE9       30.63F WCI  18
6HR MIN TEMP:  25; 6HR MAX TEMP:  27;

BURLINGTON     FAIR      24  16  71 N5        30.61F WCI  18
6HR MIN TEMP:  24; 6HR MAX TEMP:  26;

KENOSHA        FAIR      27  19  72 NE8       30.61F WCI  19
6HR MIN TEMP:  26; 6HR MAX TEMP:  27;

FOND DU LAC    FAIR      21  12  68 NE6       30.64F WCI  13
6HR MIN TEMP:  21; 6HR MAX TEMP:  24;

SHEBOYGAN      FAIR      22  14  71 N3        30.65F
6HR MIN TEMP:  21; 6HR MAX TEMP:  24;

WEST BEND      FAIR      23  16  74 NE3       30.63S
JUNEAU         FAIR      21  14  75 NE3       30.63F
6HR MIN TEMP:  21; 6HR MAX TEMP:  23;

$$

LSZ147-162-220700-
LAKE SUPERIOR

STATION/POSITION TIME  TEMP    WIND        PRES    WAVE
                       AIR SEA DIR/SP/G            HT/PER
                 (UTC) (F)     (DEG/KT/KT) (MB)    (FT/S)
DEVILS ISLAND    0400   17     210/ 10/ 13 1038.1S
SAXON HARBOR     0430    9     170/  3/  7 1036.9R
$$

LMZ867-665-643>646-220700-
LAKE MICHIGAN

STATION/POSITION TIME  TEMP    WIND        PRES



USA.gov is the U.S. government's official web portal to all federal, state and local government web resources and services.